Regional Weather Roundup
Issued by NWS Upton, NY

Current Version | Previous Version | Text Only | Print | Product List | Glossary Off
Versions: 1 2 3 4 5 6 7 8 9 10 11 12 13 14 15 16 17 18 19 20 21 22 23 24 25 26 27 28 29 30 31 32 33 34 35 36 37 38 39 40 41 42 43 44 45 46 47 48 49 50
319 ASUS41 KOKX 270008 RWROKX REGIONAL WEATHER ROUNDUP NATIONAL WEATHER SERVICE NEW YORK NY 800 PM EDT MON SEP 26 2016 NOTE: "FAIR" INDICATES FEW OR NO CLOUDS BELOW 12,000 FEET WITH NO SIGNIFICANT WEATHER AND/OR OBSTRUCTIONS TO VISIBILITY. NYZ071-072-176-178-NJZ106-104-270100- NEW YORK CITY METRO AREA CITY SKY/WX TMP DP RH WIND PRES REMARKS Central Park CLOUDY 67 50 54 VRB3 30.08S LaGuardia APRT CLOUDY 69 51 52 S17G24 30.04F Kennedy INTL CLOUDY 68 52 56 S16 30.07F Newark/Liberty CLOUDY 68 50 52 S13G20 30.06R Bronx Bot Gard N/A 66 48 52 SE3 30.07F Wall St Helipt CLOUDY 70 55 60 SW10 30.07S Teterboro CLOUDY 68 48 48 S12 30.04S $$ NYZ177-179-078>081-270100- LONG ISLAND NEW YORK CITY SKY/WX TMP DP RH WIND PRES REMARKS Farmingdale CLOUDY 67 51 56 S13 30.07S MacArthur/ISP MOCLDY 66 50 56 S10 30.07S Shirley CLEAR 64 50 60 S10 30.08S Riverhead NOT AVBL Westhampton CLEAR 64 49 57 S9 30.10S Southampton N/A 64 54 68 S15 30.05S Bridgehampton N/A 61 52 72 S2 29.94S East Hampton FAIR 63 49 61 S9 30.08S Montauk N/A 64 49 57 S7 30.10S $$ NYZ052-065-067-270100- HUDSON VALLEY CITY SKY/WX TMP DP RH WIND PRES REMARKS White Plains CLOUDY 65 49 56 S7 30.05S Newburgh MOCLDY 66 54 63 S12 30.05S Montgomery CLOUDY 67 51 56 S10 30.03R Poughkeepsie CLOUDY 66 50 56 VRB6 30.02S Albany CLOUDY 65 48 54 S9 29.97F $$ NJZ001-105-106-008-010-013-015-019>022-104-270100- NEW JERSEY CITY SKY/WX TMP DP RH WIND PRES REMARKS Newark/Liberty CLOUDY 68 50 52 S13G20 30.06R Teterboro CLOUDY 68 48 48 S12 30.04S Caldwell CLOUDY 68 49 50 S8 30.05S Morristown CLOUDY 68 50 52 SW12 30.05R Somerville CLOUDY 67 48 50 S7 30.03S Linden NOT AVBL Sussex CLOUDY 66 51 58 SW5 30.03S Abdover N/A 65 50 58 CALM 30.04S Trenton CLOUDY 67 52 58 S8G18 30.05S Millville CLOUDY 69 61 75 VRB3 30.06 Atlantic City CLOUDY 70 59 68 SE8 30.06S Wrightstown CLOUDY 66 55 67 S6 30.03F Toms River CLOUDY 66 56 70 SE5 30.07F Belmar CLOUDY 67 55 65 S7 30.07F $$ PAZ047>061-062-071-270100- EASTERN PENNSYLVANIA CITY SKY/WX TMP DP RH WIND PRES REMARKS Philadelphia CLOUDY 69 54 58 SE8 30.05S Allentown CLOUDY 67 49 52 S5 30.04R Scranton CLOUDY 63 53 70 SW10 30.01S $$ CTZ002-004>006-009-010-012-RIZ004-006-007-MAZ004-011-015-270100- SOUTHERN NEW ENGLAND IN CT CITY SKY/WX TMP DP RH WIND PRES REMARKS Bradley INTL CLOUDY 61 48 62 S8 30.05S Hartford CLOUDY 62 50 64 S9 30.06R Danbury CLOUDY 62 50 64 S7 30.06F Wtrbury/Oxford MOCLDY 61 48 63 S10 30.08F Bridgeport MOCLDY 67 51 56 S13 30.07R Meriden CLOUDY 64 50 60 S6 30.06S New Haven MOCLDY 65 52 62 S13G21 30.07S Chester FAIR 61 50 67 S7 30.08S Groton CLEAR 66 51 58 S16 30.07F Wilimantic CLOUDY 59 50 72 S3 30.08S IN RI CITY SKY/WX TMP DP RH WIND PRES REMARKS Providence CLOUDY 59 47 64 S8 30.09F Block Island CLEAR 63 50 62 S13 30.10F Westerly CLEAR 64 46 52 S10 30.10S IN MA CITY SKY/WX TMP DP RH WIND PRES REMARKS Boston CLOUDY 61 48 62 S14 30.06F Worcester CLOUDY 56 46 69 S9 30.07S Westfield CLOUDY 61 49 64 S8 30.04S Provincetown CLEAR 59 49 69 SW12 30.10F Nantucket CLEAR 59 43 55 SW10 30.12F $$ ANZ330-335-338-340-345-350-353-355-270100- COASTAL MARINE OBSERVATIONS STATION/POSITION TIME SKY/WX TEMP WIND PRES VSBY WAVE AIR SEA DIR/SP/G HT/PER (UTC) (F) (DEG/KT/KT) (MB) (MI) (FT/S) NY HARB ENTRANCE 2350 68 71 190/ 16/ 19 1018.0 3/ 4 20S FIRE ISLAND 2350 67 69 170/ 16/ 17 1018.2 3/ 9 GREAT SOUTH BAY 2330 67 70 200/ 14/ 17 N/A 23 SSW MONTAUK P 2350 66 68 190/ 16/ 17 1019.2 2/ 9 15 E BARNEGAT LI 2330 70 N/A 3/ 4 HUDSON CANYON 2250 68 70 1019.4 2/ 9 KINGS POINT 2330 68 72 1017.7 EXECUTION ROCKS 2345 68 170/ 12/ 19 N/A CENTRAL LI SOUND 2330 66 72 180/ 16/ 19 N/A 2/ 3 EASTERN LI SOUND NOT AVBL ROBBINS REEF 2330 68 190/ 18/ 20 1018.0 $$ >>>>>>>>>>>>>>>>>>>>>>>>>>>> KEY <<<<<<<<<<<<<<<<<<<<<<<<<<< > < > SKY/WX - Sky Condition/Present Weather < > TMP - Temperature in Fahrenheit < > DP - Dew Point in Fahrenheit < > RH - Relative Humidity in Percent < > WIND - Direction (from) and Speed in MPH < > PRES - Mean Sea Level Pressure (inches of Hg) < > WCI - Wind Chill Index < > VSB - VISIBILITY IN MILES < > HX - HEAT INDEX < > TC - TEMPERATURE IN CELSIUS < > VRB - VARIABLE WIND DIRECTION < > < >>>>>>>>>>>>>>>>>>>>>>>>>>>> KEY <<<<<<<<<<<<<<<<<<<<<<<<<<<

USA.gov is the U.S. government's official web portal to all federal, state and local government web resources and services.